FENGYUN 1C DEB

Satellite information

Favourite Embed

Satellite Type and Status

DEBRISIN ORBIT

Key statistics

Satellite FENGYUN 1C DEB at a glance.

Uptime

9494

Days in orbit

Revolutions

≈ 14.1

Per day

Orbit

SSO

Sun Synchronous Orbit

Inclination

98.5

Latest

Satellite identification and parameters

Extended collection of information and parameters for FENGYUN 1C DEB.

Object identification

Identified? True

Debris? True

Object name: FENGYUN 1C DEB

International designator: 1999-025BTL

Object number (NORAD): 31424

Object ID (CCSDS): 31424

Country: PEOPLES REPUBLIC OF CHINA (PRC)

Current information (Y/N): Y

RCS size: SMALL

Orbital parameters

Period: 102.262 minutes

Inclination: 98.506 deg

SMA: 7243.845 km

Apoapsis: 933.653 km

Periapsis: 797.767 km

RAAN: 181.7401 deg

Eccentricy: 0.0093794

Argument of periapsis: 17.0219 deg

Mean anomaly: 343.4062 deg

Mean motion: 14.08150326 rev/day

Mean motion (dot): 0.00000492 rev/day2

B* drag term: 0.00030022 1/REarth

Two-line elements (TLE)

Creation date: May 5, 2025, 2:11 a.m.

Reference frame: TEME

Reference center: EARTH

Epoch: May 4, 2025, 9:19 p.m. UTC

TLE line 0: 0 FENGYUN 1C DEB

TLE line 1: 1 31424U 99025BTL 25124.88853208 .00000492 00000-0 30022-3 0 9990

TLE line 2: 2 31424 98.5060 181.7401 0093794 17.0219 343.4062 14.08150326600488

Live tracking on map

Real-time ground track for satellite FENGYUN 1C DEB.

In-orbit conjunctions

A list of the most updated potential collisions computed for object FENGYUN 1C DEB.

Target Orbit TCA Probability of collision Miss distance Type
COSMOS 660 LEO 2025-03-17 02:59:07 0.0003558247 296.0 (m) PAYLOAD
THOR BURNER 2A R/B SSO 2024-11-15 06:56:19 0.0002013347 746.0 (m) ROCKET BODY
COSMOS 1607 LEO 2024-10-20 02:52:54 0.0002277763 641.0 (m) PAYLOAD

Associated space launch

Chinese polar orbiting meteorological satellite

FENGYUN 1C DEB was lifted into orbit during the mission ‘Long March 4B | Feng Yun 1C’, on board a Long March 4B space rocket.

The launch took place on May 10, 1999, 1:33 a.m. from Launch Complex 7.

For more information about the launch, click the button.

Launch to space Long March 4B | Feng Yun 1C
Long March 4B | Feng Yun 1C

Agency: N/A

Status: Launch Successful

Launch date: May 10, 1999, 1:33 a.m. UTC

Rocket: Long March 4B

Launch pad: Launch Complex 7

Location: Taiyuan Satellite Launch Center, People's Republic of China

...

Latest news about this satellite

There are no fresh news available about this satellite. Check back as we update our databases every day.


Newsletter sign-up

Weekly statistics, charts and insights to help you stay on top of the space industry.